Погода в Барсуках

Россия / Республика Ингушетия     43°15′39″N   44°48′33″E
В апреле 2022 года жителям России запретили посещать сайт meteo.paraplan.net по решению Генеральной прокуратуры. Аудитория сайта уменьшилась в 10 раз. Владельцы сайта не видят смысла в поддержке погодного сервера в таких условиях. Сайт будет закрыт в октябре.
темп.,
°C
ветер,
м/с
пор.,
м/с
влажн.,
%
обл.,
%
осадки,
мм/ч
давл.,
гПа
погр.,
м
6 октября, чт
чт600:00+14с1374100 0.0 1025322
03:00+13ссв2276100 0.0 1025256
06:00+13св1278100 0.1 1025239
09:00+13всв3379100 0.1 1025408
12:00+13всв2275100 0.0 1026580
15:00+13в2375100 0.0 1025510
18:00+13всв1277100 0.0 1026248
21:00+13св117890 0.0 102644
7 октября, пт
пт700:00+12всв118389 0.0 102619
03:00+12ссв0181100 0.0 102637
06:00+12св118299 0.0 102637
09:00+14всв237598 0.0 1026466
12:00+18в446077 0.0 10241072
15:00+17в555986 0.0 10231134
18:00+15в367033 0.0 1024147
21:00+13в237328 0.0 102469
8 октября, сб
сб800:00+11в34830 0.0 102381
03:00+10в23952 0.0 102353
06:00+9в119625 0.0 102212
09:00+14всв227864 0.0 1022480
12:00+15всв457679 0.0 1020673
15:00+16всв567473 0.1 1019804
18:00+15всв588268 0.0 1019432
21:00+13всв478961 0.0 1019337
9 октября, вс
вс900:00+12всв349352 0.0 1018177
03:00+11всв2295100 0.0 101668
06:00+11с0096100 0.0 101628
09:00+15сз1177100 0.0 1014408
12:00+19сз2157100 0.0 1012745
15:00+21в2249100 0.0 1010539
18:00+17с1167100 0.0 101111
21:00+15зюз3477100 0.0 101395
10 октября, пн
пн1000:00+13зюз378311 0.0 1013128
03:00+13юз348521 0.0 101460
06:00+13юз2283100 0.0 101428
09:00+18з456199 0.0 1015661
12:00+19з2255100 0.0 1015961
15:00+20ссз2150100 0.0 10151145
18:00+16с126612 0.0 101611
21:00+16з1169100 0.1 101721